User: anonymous   Login
Location: Friaudour
(46.0460°N, 1.2873°E)
Time: 07:44:43
(UTC+00:00)
Language:

BREEZE-M DEB (TANK) - Orbit

View from above orbital plane
View from above orbital plane
View from above satellite
View from above satellite

Ground track
Ground track

The orbit data is extracted from the following two-line orbital elements,

1 33279U 08039B   20272.36076272 -.00000022 +00000-0 +82082-4 0  9999
2 33279 045.9576 162.5268 4843505 183.4937 171.3282 05.71745309251043
Epoch (UTC): 28 September 2020 08:39:29
Eccentricity: 0.4843505
inclination: 45.9576°
perigee height: 434 km
apogee height: 13231 km
right ascension of ascending node: 162.5268°
argument of perigee: 183.4937°
revolutions per day: 5.71745309
mean anomaly at epoch: 171.3282°
orbit number at epoch: 25104

The dashed part of the orbit path shows where the satellite is in the earth's shadow,  

DLR